Home   Weather   Nordkirchen   Past weeks

Flag for Germany Past Weather in Nordkirchen, North Rhine-Westphalia, Germany — Yesterday and Last 2 Weeks

Now
63 °F

Passing clouds.


Feels Like: 63 °F
Forecast: 60 / 69 °F
Wind: 7 mph from Southwest

Location: Dortmund / Wickede

Current Time: Jul 26, 2017 at 10:56:51 pm

Latest Report: Jul 26, 2017 at 9:50 pm


Visibility: N/A

Pressure: 29.77 "Hg

Humidity: 64%

Dew Point: 50 °F

Location of NordkirchenLocation

Past Weather in Nordkirchen — Graph

°F

Nordkirchen Temperature Yesterday

Maximum temperature yesterday: 61 °F (at 3:20 pm)
Minimum temperature yesterday: 55 °F (at 5:20 am)
Average temperature yesterday: 58 °F

High & Low Weather Summary for the Past Weeks

 TemperatureHumidityPressure
High90 °F (Jul 19, 2:50 pm)100% (Jul 24, 11:50 am)30.21 "Hg (Jul 24, 11:50 am)
Low39 °F (Jul 24, 11:50 am)29% (Jul 19, 2:50 pm)29.68 "Hg (Jul 12, 1:20 pm)
Average64 °F66%29.96 "Hg
* Reported Jul 11 9:20 pm — Jul 26 9:20 pm, Nordkirchen. Weather by CustomWeather, © 2017

Note: Actual official high and low records may vary slightly from our data, if they occured in-between our weather recording intervals... More about our weather records

Advertising

Nordkirchen Weather History for the Previous 24 Hours

Scroll right to see more
 ConditionsComfort  
Time TempWeatherWind HumidityBarometerVisibility
9:20 pm
Wed, Jul 26
63 °FSunny.8 mph68%29.77 "Hg10 mi
8:50 pm64 °FSunny.8 mph64%29.77 "Hg10 mi
8:20 pm64 °FPassing clouds.8 mph64%29.80 "HgN/A
7:50 pm66 °FSunny.8 mph60%29.77 "Hg10 mi
7:20 pm70 °FPassing clouds.8 mph53%29.77 "HgN/A
6:50 pm70 °FPassing clouds.7 mph53%29.77 "HgN/A
6:20 pm72 °FPassing clouds.7 mph50%29.77 "HgN/A
5:50 pm70 °FPassing clouds.10 mph57%29.80 "HgN/A
5:20 pm70 °FSunny.7 mph53%29.80 "Hg10 mi
4:50 pm72 °FScattered clouds.6 mph50%29.80 "HgN/A
4:20 pm72 °FScattered clouds.7 mph47%29.80 "HgN/A
3:20 pm66 °FScattered clouds.6 mph56%29.80 "HgN/A
2:50 pm68 °FScattered clouds.7 mph56%29.80 "HgN/A
2:20 pm70 °FScattered clouds.7 mph60%29.80 "HgN/A
1:50 pm68 °FPartly sunny.8 mph56%29.80 "HgN/A
1:20 pm68 °FPartly sunny.9 mph56%29.80 "HgN/A
12:50 pm66 °FScattered clouds.7 mph60%29.80 "HgN/A
12:20 pm66 °FScattered clouds.9 mph64%29.80 "HgN/A
11:50 am63 °FScattered clouds.8 mph77%29.80 "HgN/A
11:20 am64 °FPartly sunny.8 mph73%29.80 "HgN/A
10:50 am63 °FPartly sunny.7 mph83%29.80 "HgN/A
10:20 am63 °FPartly sunny.7 mph77%29.80 "HgN/A
9:20 am59 °FPartly sunny.6 mph88%29.80 "Hg6 mi
8:50 am59 °FPartly sunny.5 mph88%29.77 "Hg4 mi
8:20 am59 °FPartly sunny.7 mph88%29.77 "Hg4 mi
7:50 am59 °FSprinkles. Low clouds.6 mph88%29.77 "Hg4 mi
7:20 am59 °FSprinkles. Low clouds.6 mph88%29.77 "Hg4 mi
6:50 am57 °FLow clouds.5 mph94%29.77 "Hg4 mi
6:20 am57 °FLow clouds.5 mph94%29.77 "Hg4 mi
5:50 am57 °FLow clouds.6 mph94%29.77 "Hg4 mi
5:20 am57 °FLow clouds.5 mph94%29.77 "Hg4 mi
Weather by CustomWeather, © 2017

See weather overviewHow to use our weather pages